Ben Bolt, TX

5:48 AM CST on February 13, 2016 (GMT -0600)
Alice International

Weather History for KALI - August, 2013

Change the Weather History Date:

Thursday, August 8, 2013

  Actual Average Record
Temperature  
Mean Temperature 92 °F -  
Max Temperature 105 °F 96 °F 106 °F (2003)
Min Temperature 78 °F 73 °F 72 °F (2003)
Cooling Degree Days 26    
Growing Degree Days 42 (Base 50)    
Moisture  
Dew Point 73 °F    
Average Humidity 64    
Maximum Humidity 90    
Minimum Humidity 26    
Precipitation  
Precipitation 0.00 in - - ()
Sea Level Pressure  
Sea Level Pressure 29.85 in    
Wind  
Wind Speed 12 mph (SSE)    
Max Wind Speed 18 mph    
Max Gust Speed 29 mph    
Visibility 9 miles    
Events      
Averages and records for this station are not official NWS values.
T = Trace of Precipitation, MM = Missing Value Source: NWS Daily Summary

Daily Weather History Graph

Daily Weather History Graph

Search for Another Location

Airport or City:

Trip Planner

Search our weather history database for the weather conditions in past years. The results will help you decide how hot, cold, wet, or windy it might be!

Date:

Astronomy

Aug. 08, 2013 Rise Set
Actual Time 6:59 AM CDT 8:15 PM CDT
Civil Twilight 6:34 AM CDT 8:40 PM CDT
Nautical Twilight 6:04 AM CDT 9:10 PM CDT
Astronomical Twilight 5:33 AM CDT 9:40 PM CDT
Moon 8:32 AM CDT (8/8) 9:12 PM CDT (8/8)
Length of Visible Light 14h 06m
Length of Day
13h 16m
Waxing Crescent, 3% of the Moon is Illuminated
Aug 8
Waxing Crescent
Aug 14
First Quarter
Aug 20
Full
Aug 28
Last Quarter
Sep 5
New

Hourly Weather History & Observations

Time (CDT) Temp. Heat Index Dew Point Humidity Pressure Visibility Wind Dir Wind Speed Gust Speed Precip Events Conditions
12:53 AM 81.0 °F 87.3 °F 75.9 °F 85% 29.89 in 10.0 mi SSE 12.7 mph - N/A   Overcast
1:53 AM 82.0 °F 88.6 °F 75.0 °F 79% 29.88 in 10.0 mi SSE 12.7 mph 19.6 mph N/A   Overcast
2:53 AM 82.0 °F 88.6 °F 75.0 °F 79% 29.87 in 10.0 mi South 12.7 mph - N/A   Overcast
3:53 AM 82.9 °F 89.4 °F 73.9 °F 74% 29.86 in 10.0 mi SSE 12.7 mph 19.6 mph N/A   Overcast
4:39 AM 80.6 °F 85.4 °F 73.4 °F 79% 29.86 in 10.0 mi South 10.4 mph - N/A   Overcast
4:53 AM 81.0 °F 86.2 °F 73.9 °F 79% 29.84 in 10.0 mi South 8.1 mph - N/A   Overcast
5:10 AM 80.6 °F 85.4 °F 73.4 °F 79% 29.85 in 10.0 mi South 10.4 mph - N/A   Overcast
5:53 AM 79.0 °F - 75.0 °F 88% 29.84 in 9.0 mi South 8.1 mph - N/A   Overcast
6:53 AM 78.1 °F - 75.0 °F 90% 29.84 in 9.0 mi SSE 8.1 mph - N/A   Overcast
7:53 AM 79.0 °F - 75.9 °F 90% 29.85 in 8.0 mi SSE 6.9 mph - N/A   Overcast
8:41 AM 82.4 °F 89.5 °F 75.2 °F 79% 29.87 in 9.0 mi South 9.2 mph - N/A   Overcast
8:53 AM 82.9 °F 90.8 °F 75.9 °F 79% 29.87 in 10.0 mi South 12.7 mph - N/A   Overcast
9:53 AM 88.0 °F 96.5 °F 73.9 °F 63% 29.88 in 10.0 mi South 15.0 mph 23.0 mph N/A   Mostly Cloudy
10:53 AM 91.9 °F 100.7 °F 73.0 °F 54% 29.88 in 10.0 mi South 12.7 mph - N/A   Partly Cloudy
11:53 AM 93.9 °F 102.1 °F 72.0 °F 49% 29.88 in 10.0 mi Variable 5.8 mph - N/A   Clear
12:53 PM 97.0 °F 103.5 °F 70.0 °F 41% 29.86 in 10.0 mi Variable 5.8 mph - N/A   Clear
1:53 PM 102.0 °F 105.9 °F 64.9 °F 30% 29.84 in 10.0 mi South 10.4 mph 16.1 mph N/A   Clear
2:44 PM 105.8 °F 109.8 °F 64.4 °F 26% 29.83 in 1.0 mi South 11.5 mph 19.6 mph N/A   Haze
2:49 PM 102.2 °F 105.5 °F 64.4 °F 29% 29.82 in 4.0 mi South 5.8 mph 19.6 mph N/A   Haze
2:53 PM 104.0 °F 108.1 °F 64.9 °F 28% 29.81 in 10.0 mi SSE 11.5 mph 18.4 mph N/A   Clear
3:53 PM 102.9 °F 110.7 °F 70.0 °F 34% 29.80 in 10.0 mi ESE 15.0 mph 24.2 mph N/A   Clear
4:53 PM 100.0 °F 111.0 °F 73.0 °F 42% 29.78 in 10.0 mi SE 18.4 mph 28.8 mph N/A   Clear
5:53 PM 97.0 °F 107.0 °F 73.0 °F 46% 29.78 in 10.0 mi SE 17.3 mph 27.6 mph N/A   Clear
6:53 PM 91.9 °F 100.7 °F 73.0 °F 54% 29.79 in 10.0 mi SE 17.3 mph 26.5 mph N/A   Clear
7:53 PM 88.0 °F 94.7 °F 72.0 °F 59% 29.81 in 10.0 mi SE 17.3 mph 27.6 mph N/A   Clear
8:53 PM 84.0 °F 91.2 °F 73.9 °F 72% 29.83 in 10.0 mi SE 15.0 mph 21.9 mph N/A   Clear
9:53 PM 82.9 °F 90.2 °F 75.0 °F 77% 29.85 in 10.0 mi SSE 13.8 mph 19.6 mph N/A   Clear
10:53 PM 81.0 °F 86.7 °F 75.0 °F 82% 29.87 in 10.0 mi SSE 15.0 mph 19.6 mph N/A   Clear
11:53 PM 81.0 °F 86.7 °F 75.0 °F 82% 29.88 in 10.0 mi SSE 13.8 mph - N/A   Clear